Location: Cañón la Puerta
(32.5440°N, 116.6804°W)
Time: 12:31:57
(UTC+00:00)

Daily predictions for brighter satellites

Satellite Brightness Start Highest point End
(mag) Time Altitude Azimuth Time Altitude Azimuth Time Altitude Azimuth
COSMOS 2428 3.6 12:00:47 10° NW 12:05:27 27° WSW 12:10:08 10° SSW
CZ-4B R/B 4.4 12:02:43 10° NNE 12:07:45 51° E 12:12:37 10° S
Delta 2 Rocket 4.2 12:03:29 10° W 12:07:50 41° SSW 12:12:39 10° SE
CZ-4C R/B 4.1 12:04:04 10° SSE 12:08:19 64° ENE 12:12:39 10° N
Cosmos 2219 3.7 12:07:59 10° SW 12:13:24 46° WNW 12:18:49 10° N
Cosmos 1544 2.9 12:10:37 10° SSW 12:14:06 71° W 12:17:37 10° N
OAO 3 Rocket 3.5 12:10:21 10° W 12:15:17 70° N 12:20:10 10° ENE
Meteor 1-18 Rocket 4.5 12:11:02 10° N 12:16:51 83° E 12:22:43 10° S
